PEGASUS DEB, 24239

Orbit data source: Space-Track

PEGASUS DEB, 24239 is space debris in LEO originally from a launch on Thu, 19 May 1994 UTC launched from the Air Force Western Test Range (AFWTR). Debris objects in space refer to the collection of defunct objects orbiting the Earth. Examples of debris include non-operational satellites, rocket bodies, and fragments generated from explosions, collisions, or faulty payload assembly.

Loading next visibility...
Identifier
24239, 1994-029LN
Orbit
LEO
Country
Flag of USUS
Related business
Manufacturer
Unknown
Mission
Spacecraft
Bus & Motor
Unknown
Mass
Unknown
Launch date (UTC)
1994-05-19 (32 years ago)
Launch vehicle
Unknown
Launch site
Air Force Western Test Range (AFWTR)
Object type
Payload
Rocket body
Debris
Shape & HBR
Unknown shape, 0.1 m
Radar Cross Section
Small (<0.1 m²)

Expand to show TLE details & history
Last TLE update: 1 day ago

TLE from 1 day ago
0 PEGASUS DEB
1 24239U 94029LN  26065.04767785  .00011246  00000-0  12574-2 0  9992
2 24239  81.5075 269.2837 0143240 177.0412 183.1682 14.79584904561003
Epoch: 2026-03-06T01:08Z
TLE epoch observation values (Epoch: 2026-03-06T01:08:39.366Z)
Latitude
0.00001°
Longitude
88.33039°
Altitude
733.904 km
Speed
7.434 km/s
True Right ascension
17h 57m 08s
True Declination
0° 00' 00"
Sunlit
Object was in daylight at epoch
Visualization orbit readout
Latitude
Unknown
Longitude
Unknown
Altitude
Unknown
Speed
Unknown
Apparent Right ascension
Unknown
Apparent Declination
Unknown
Sunlit
N/A
Visualization observer readout
Local Sidereal Time
07:26:25
Azimuth
Unknown
Elevation
Unknown
Doppler factor
Unknown
Orbital elements
Apogee altitude
728.054 km
Perigee altitude
527.351 km
Semi-major axis
7,005.84 km
Eccentricity
0.01432
Inclination
81.5075°
RAAN
269.2837°
Arg. of periapsis
177.0412°
True anomaly
183.07908°
Mean anomaly
183.1682°
Eccentric anomaly
183.12348°
Mean motion
3.70129 °/min
Orbital period
97.26 mins
BSTAR
0.0012574
Loading maneuver chart data...
Computing Atmospheric mass density...

Documentation

Showing up to 5 results
|